Location: Chez Launaix
(45.8234°N, 2.2383°E)
Time: 00:28:30
(UTC+00:00)

Daily predictions for brighter satellites

Satellite Brightness Start Highest point End
(mag) Time Altitude Azimuth Time Altitude Azimuth Time Altitude Azimuth
Cosmos 1937 Rocket 3.7 00:08:37 46° SSE 00:09:55 60° ESE 00:15:10 10° NNE
Resurs 1-4 Rocket 4.4 00:07:54 10° ENE 00:10:11 13° E 00:12:28 10° ESE
Cosmos 1459 Rocket 4.3 00:07:49 35° SW 00:10:27 60° WNW 00:16:47 10° N
Cosmos 1674 Rocket 3.4 00:14:04 63° S 00:14:46 85° E 00:19:14 10° N
Cosmos 304 Rocket 3.8 00:14:02 52° SSE 00:14:56 65° ESE 00:19:42 10° NNE
Meteor 2-5 Rocket 4.1 00:12:54 38° SSE 00:14:57 57° E 00:20:37 10° NNE
Cosmos 1953 3.4 00:12:17 10° NNW 00:15:47 31° W 00:15:52 31° W
SL-08 R/B 4.4 00:15:04 42° S 00:17:19 89° E 00:23:27 10° N
COSMOS 2406 4.3 00:16:29 26° SE 00:18:03 30° ESE 00:22:56 10° NE
PSLV R/B 4.2 00:16:02 10° N 00:20:40 54° WNW 00:21:59 40° WSW
CZ-2C R/B 3.4 00:17:52 34° SSW 00:20:50 72° W 00:24:32 10° N
H-2A R/B 3.4 00:16:41 10° NNE 00:20:51 73° ESE 00:21:22 63° SSE
Cosmos 1864 Rocket 4.5 00:18:30 39° SSW 00:20:54 74° W 00:27:09 10° N
Cosmos 1809 Rocket 4.5 00:14:46 10° N 00:20:54 75° E 00:23:34 36° SSE
USA 276 3.4 00:20:11 30° NW 00:21:05 38° N 00:23:57 10° ENE
Cosmos 1898 Rocket 3.5 00:20:15 46° SSW 00:21:53 81° WNW 00:27:09 10° NNE
BlueWalker 3 1.8 00:20:38 10° WNW 00:24:20 75° WSW 00:24:20 75° WSW
USA 234 4.2 00:25:19 26° SW 00:25:36 26° SW 00:30:57 10° WNW
Cosmos 1900 4.4 00:24:47 49° SSE 00:25:38 57° ESE 00:30:26 10° NE
USA 290 2.5 00:23:04 10° NNW 00:26:01 65° NNE 00:26:01 65° NNE
USA 229 DEB 3.6 00:24:48 31° SW 00:28:03 78° NW 00:34:54 10° NE
USA 229 3.6 00:24:56 31° SW 00:28:10 79° NW 00:35:00 10° NE
Cosmos 2360 4.1 00:25:25 10° NNW 00:31:09 79° WSW 00:33:19 39° SSE
Cosmos 1680 Rocket 3.4 00:26:05 10° NNW 00:31:20 79° WSW 00:32:56 45° S
Sich 1 Rocket 4.3 00:30:16 10° NNW 00:34:35 41° W 00:35:16 38° WSW
Cosmos 1833 Rocket 2.7 00:33:26 40° SW 00:35:35 79° WNW 00:41:17 10° NNE
Cosmos 2061 Rocket 4.0 00:33:24 38° SSW 00:35:56 72° W 00:42:09 10° N
CZ-2D R/B 3.9 00:33:30 10° NE 00:37:33 21° E 00:40:16 15° SE
Lacrosse 5 rocket 3.4 00:33:57 10° NW 00:37:54 31° NNE 00:41:53 10° E
Cosmos 1818 3.5 00:35:49 10° NW 00:41:18 78° WSW 00:43:36 36° SSE
Cosmos 967 Rocket 4.4 00:35:24 10° NW 00:41:46 82° WSW 00:45:26 27° SSE
Cosmos 1980 Rocket 2.6 00:38:44 10° NNW 00:44:18 60° ENE 00:48:25 18° SE
Cosmos 2221 Rocket 4.4 00:44:48 34° WSW 00:45:56 40° WNW 00:50:14 10° N
Cosmos 1356 4.4 00:50:52 10° N 00:52:49 30° NE 00:52:49 30° NE
SAR-Lupe-1 4.1 00:50:22 10° N 00:53:51 61° WNW 00:54:08 58° W
Cosmos 1867 4.1 00:53:11 35° SSE 00:54:51 46° ESE 01:00:03 10° NE
DELTA 2 R/B (1) 3.8 01:00:14 37° SW 01:01:36 44° S 01:06:51 10° ESE
MOZ.5/SAFIR/RUBIN 5/SL-8 3.8 01:02:09 34° SSE 01:04:13 82° ENE 01:08:59 10° NNW
Geosat 4.4 01:00:28 14° SE 01:04:43 62° ENE 01:09:41 10° NNW
Cosmos 2112 Rocket 4.5 01:05:16 10° NW 01:10:12 43° WSW 01:11:29 36° SW
SWARM A 4.5 01:10:20 10° N 01:13:58 74° E 01:14:48 50° SSE
Okean 1 Rocket 4.1 01:13:42 10° NNW 01:17:35 30° W 01:18:20 28° WSW
Cosmos 1340 Rocket 4.5 01:17:12 20° W 01:18:13 22° WNW 01:21:22 10° NNW
Cosmos 332 Rocket 4.2 01:18:05 33° WSW 01:19:59 53° WNW 01:24:45 10° NNE
Meteor 2-16 Rocket 4.4 01:14:34 10° NNW 01:20:45 78° W 01:24:10 28° S
Cosmos 2082 Rocket 2.1 01:18:53 34° SSW 01:21:27 87° ESE 01:27:06 10° NNE
Meteor 2-15 Rocket 4.5 01:20:31 28° S 01:23:52 78° E 01:29:57 10° NNE
Cosmos 1125 Rocket 4.3 01:22:53 24° SSE 01:25:32 42° ESE 01:30:29 10° NE
NPP 4.1 01:22:50 10° NNE 01:28:09 55° E 01:31:17 24° S
Cosmos 2292 Rocket 2.6 01:25:16 10° N 01:28:14 87° E 01:28:45 59° SSE
Cosmos 292 Rocket 4.3 01:26:15 29° SSE 01:28:21 50° ESE 01:32:56 10° NNE
Cosmos 1455 4.2 01:26:24 10° NW 01:28:34 15° W 01:28:34 15° W
Cosmos 2344 4.2 01:25:04 21° S 01:29:34 41° ESE 01:36:19 10° NE
Cosmos 494 Rocket 3.9 01:28:43 10° NNW 01:33:54 86° WSW 01:37:29 20° SSE
Intercosmos 25 Rocket 2.8 01:35:15 49° S 01:36:00 81° E 01:39:25 10° N
Cosmos 1697 Rocket 3.7 01:32:09 10° NW 01:36:53 28° WSW 01:38:13 25° SW
SL-16 R/B 3.3 01:33:30 10° NNW 01:38:56 44° NE 01:44:19 10° SE
Cosmos 1025 Rocket 3.7 01:38:46 31° WSW 01:40:15 42° WNW 01:44:24 10° N
Iridium 4 Rocket 3.8 01:37:13 28° S 01:40:24 77° W 01:46:20 10° N
Cosmos 2322 Rocket 4.0 01:35:26 10° NNW 01:40:32 33° NE 01:45:35 10° ESE
Cosmos 1703 4.1 01:40:27 31° WSW 01:41:27 36° WNW 01:45:02 10° N
Cosmos 1328 3.9 01:42:10 31° S 01:43:52 67° E 01:47:43 10° NNE
Cosmos 2360 Rocket 4.4 01:41:08 10° N 01:45:52 27° NE 01:50:35 10° ESE
[s.n.70137] 4.0 01:47:28 25° SE 01:47:28 25° SE 01:49:07 10° E
[s.n.70136] 4.0 01:47:28 25° SE 01:47:28 25° SE 01:49:08 10° E
[s.n.70135] 4.0 01:47:29 25° SE 01:47:29 25° SE 01:49:09 10° E
[s.n.70076] 4.0 01:47:29 25° SE 01:47:29 25° SE 01:49:09 10° E
[s.n.70078] 4.0 01:47:29 26° SE 01:47:29 26° SE 01:49:09 10° E
[s.n.70123] 4.0 01:47:29 26° SE 01:47:29 26° SE 01:49:09 10° E
[s.n.70069] 4.0 01:47:30 25° SE 01:47:30 25° SE 01:49:09 10° E
[s.n.70142] 4.0 01:47:30 26° SE 01:47:30 26° SE 01:49:09 10° E
[s.n.70073] 4.0 01:47:30 26° SE 01:47:30 26° SE 01:49:09 10° E
[s.n.70133] 4.0 01:47:30 26° SE 01:47:30 26° SE 01:49:09 10° E
[s.n.70131] 4.0 01:47:30 25° SE 01:47:30 25° SE 01:49:11 10° E
[s.n.70144] 4.0 01:47:30 26° SE 01:47:30 26° SE 01:49:11 10° E
[s.n.70128] 4.0 01:47:30 25° SE 01:47:30 25° SE 01:49:11 10° E
[s.n.70139] 4.0 01:47:30 25° SE 01:47:30 25° SE 01:49:11 10° E
[s.n.70143] 4.0 01:47:31 26° SE 01:47:31 26° SE 01:49:11 10° E
[s.n.70152] 4.0 01:47:32 26° SE 01:47:32 26° SE 01:49:12 10° E
[s.n.70114] 4.0 01:47:32 26° SE 01:47:32 26° SE 01:49:12 10° E
[s.n.70151] 4.0 01:47:32 26° SE 01:47:32 26° SE 01:49:13 10° E
[s.n.70084] 4.0 01:47:32 26° SE 01:47:32 26° SE 01:49:13 10° E
[s.n.70120] 4.0 01:47:32 26° SE 01:47:32 26° SE 01:49:13 10° E
[s.n.70119] 4.0 01:47:33 26° SE 01:47:33 26° SE 01:49:13 10° E
Cosmos 2228 4.0 01:44:28 10° N 01:48:33 44° ENE 01:52:36 10° SSE
Tiangong 0.2 01:51:00 14° SE 01:51:00 14° SE 01:52:11 10° ESE
Resurs 1-4 Rocket 2.1 01:45:24 10° NNE 01:50:42 89° WNW 01:53:53 25° SSW
AQUA 4.3 01:46:30 10° NNE 01:51:10 54° E 01:54:18 20° S
Cosmos 1892 3.0 01:49:33 27° SSE 01:51:22 61° E 01:55:04 10° NNE
ADEOS II 2.4 01:49:46 10° NNE 01:54:59 60° ESE 01:58:44 19° S
Cosmos 1975 Rocket 3.9 01:54:40 25° WSW 01:56:28 37° WNW 02:00:32 10° N
Cosmos 1455 Rocket 4.1 01:52:46 10° NNW 01:56:32 30° W 01:57:50 25° WSW
USA 276 3.3 01:53:38 10° WNW 01:56:33 42° NNE 01:59:29 10° E
UNK 4.3 01:52:59 10° SSE 01:57:33 58° ENE 02:02:08 10° N
Nadezhda 4 Rocket 4.0 01:51:19 10° N 01:57:36 77° W 02:02:30 17° S
ARGOS Delta rocket 4.3 01:52:40 11° SSE 01:57:53 74° ENE 02:03:07 10° N
Cosmos 1092 Rocket 4.4 01:52:33 10° N 01:58:46 63° ENE 02:04:52 10° SSE
NOSS 3-2 (A) 4.2 01:51:42 10° NW 01:59:12 82° NE 02:07:56 10° SE
Cosmos 1408 2.9 02:00:22 32° SW 02:01:28 45° WNW 02:04:49 10° N
COSMOS 2406 3.9 01:58:31 20° WSW 02:02:08 45° WNW 02:07:35 10° NNE
Cosmos 1340 3.6 01:59:41 10° NNW 02:02:48 27° W 02:03:28 25° WSW
Cosmos 1544 Rocket 3.7 01:59:39 10° NNW 02:03:55 57° W 02:06:20 24° SSW
Cosmos 1536 Rocket 3.6 02:03:17 22° S 02:06:02 79° E 02:10:25 10° NNE
Cosmos 2333 Rocket 4.4 02:01:12 10° N 02:06:05 28° NE 02:10:55 10° ESE
MSX 3.9 02:01:13 10° NNE 02:07:00 80° ESE 02:11:23 18° S
Cosmos 1238 Rocket 3.8 02:01:47 10° N 02:07:38 80° W 02:13:10 13° S
CENTAUR R/B 3.3 02:00:42 10° NW 02:08:59 85° SW 02:18:09 10° SSE
SL-16 R/B 2.5 02:04:16 10° SSE 02:10:26 82° WSW 02:16:39 10° NNW
Meteor 1-28 Rocket 3.1 02:08:58 18° SSE 02:11:40 87° WSW 02:15:25 10° NNW
Cosmos 1048 Rocket 4.3 02:07:04 10° NNW 02:11:56 45° WSW 02:15:19 19° SSW
Lacrosse 5 4.1 02:09:38 10° SSE 02:12:11 14° ESE 02:14:43 10° E
Cosmos 1825 2.1 02:12:30 22° S 02:14:43 77° E 02:18:22 10° NNE
Lacrosse 5 rocket 1.4 02:12:37 10° NW 02:17:04 71° SW 02:21:30 10° SE
CZ-2D R/B 2.4 02:12:41 10° N 02:17:56 56° WNW 02:21:34 19° SW
Meteor 1-21 Rocket 4.5 02:16:14 20° SSW 02:20:09 58° WNW 02:25:43 10° N
IDEFIX/ARIANE 42P 2.8 02:18:04 10° N 02:23:16 61° WNW 02:27:05 18° SSW
Cosmos 2278 3.8 02:18:32 10° NW 02:24:01 54° WSW 02:29:30 10° S
BREEZE-M DEB (TANK) 4.5 02:10:32 10° WNW 02:26:26 76° N 02:30:24 10° E
Cosmos 1980 Rocket 3.4 02:23:37 10° NW 02:27:48 22° W 02:30:07 17° SW
Cosmos 2034 Rocket 4.3 02:23:49 18° SSW 02:28:27 55° WNW 02:34:38 10° N
Cosmos 2026 Rocket 3.9 02:24:43 10° N 02:30:50 83° W 02:37:00 10° S
COSMOS 2441 4.3 02:27:32 10° NNE 02:32:21 80° WNW 02:36:18 15° SSW
FENGYUN 3A 4.0 02:31:03 10° NNE 02:36:25 64° ESE 02:41:45 10° S
ALOS 3.1 02:32:39 10° NNE 02:37:09 46° E 02:41:36 10° S
USA 215 4.5 02:33:55 10° ENE 02:39:38 31° SE 02:45:18 10° S
Cosmos 1634 Rocket 4.0 02:38:24 11° S 02:44:31 80° W 02:50:47 10° N
Cosmos 1726 Rocket 3.8 02:41:40 10° N 02:46:01 71° E 02:50:21 10° SSE
DELTA 2 R/B (1) 4.4 02:42:42 10° W 02:47:21 28° SSW 02:52:01 10° SE
Meteor 1-11 4.4 02:48:12 12° SSW 02:53:34 62° WNW 02:59:20 10° N
Cosmos 389 Rocket 2.3 02:53:57 13° SSW 02:56:40 63° WNW 02:59:50 10° N
Cosmos 2084 3.1 02:53:03 10° NW 02:56:52 71° SW 03:00:48 10° SSE
Cosmos 1269 Rocket 4.3 02:53:04 10° NNW 02:58:23 76° ENE 03:03:39 10° SSE
Thor Agena Rocket 3.9 02:53:41 10° N 02:58:49 53° WNW 03:03:52 10° SW
CZ-2C R/B 3.5 02:55:10 10° NNE 02:59:42 41° E 03:04:05 10° S
Cosmos 1633 3.8 02:57:40 13° WSW 02:59:47 23° WNW 03:02:28 10° NNW
Cosmos 1892 Rocket 3.7 02:55:59 10° S 03:00:20 77° E 03:04:42 10° NNE
Cosmos 1356 Rocket 3.4 02:57:11 11° SSW 03:00:53 61° WNW 03:04:50 10° N
NOSS 3-2 (C) 4.1 02:55:11 10° NW 03:02:46 81° SW 03:11:34 10° SSE
Cosmos 2237 4.4 02:59:08 10° NW 03:04:36 49° WSW 03:10:02 10° S
Cosmos 1606 Rocket 3.7 03:00:36 10° NNW 03:04:50 55° W 03:09:06 10° S
Cosmos 2082 Rocket 4.1 03:02:20 10° W 03:06:18 19° NW 03:10:18 10° N
Meteor 1-27 4.3 03:02:43 10° NNW 03:08:34 80° W 03:14:17 10° S
ERS-2 2.5 03:08:05 10° NNE 03:11:24 57° ESE 03:14:41 10° S
USA 267 4.5 03:08:56 10° E 03:15:07 46° NNE 03:21:19 10° NW
Cosmos 405 4.3 03:15:08 10° WSW 03:17:27 20° WNW 03:19:47 10° NNW
Cosmos 1400 Rocket 3.2 03:14:28 10° SSW 03:18:16 47° WNW 03:22:10 10° N
IRS-1D 3.6 03:13:08 10° NNE 03:18:27 86° WNW 03:23:38 10° SSW
NOSS 2-1 (C) 4.2 03:15:29 10° S 03:18:33 31° ESE 03:21:21 10° ENE
NOSS 2-1 (D) 4.1 03:18:05 10° S 03:21:14 33° ESE 03:24:05 10° ENE
[s.n.70137] 2.9 03:18:57 10° WSW 03:21:37 45° S 03:24:16 10° ESE
[s.n.70136] 2.9 03:18:58 10° WSW 03:21:37 45° S 03:24:16 10° ESE
[s.n.70135] 2.9 03:18:58 10° WSW 03:21:38 45° S 03:24:17 10° ESE
[s.n.70076] 2.9 03:18:59 10° WSW 03:21:38 45° S 03:24:17 10° ESE
[s.n.70078] 2.9 03:18:59 10° WSW 03:21:39 45° S 03:24:18 10° ESE
[s.n.70123] 2.9 03:18:59 10° WSW 03:21:39 45° S 03:24:18 10° ESE
[s.n.70069] 2.9 03:19:00 10° WSW 03:21:39 45° S 03:24:18 10° ESE
[s.n.70142] 2.9 03:19:00 10° WSW 03:21:39 45° S 03:24:18 10° ESE
[s.n.70133] 2.9 03:19:00 10° WSW 03:21:39 45° S 03:24:19 10° ESE
[s.n.70073] 2.9 03:19:00 10° WSW 03:21:39 45° S 03:24:19 10° ESE
[s.n.70131] 2.9 03:19:00 10° WSW 03:21:39 45° S 03:24:19 10° ESE
[s.n.70139] 2.9 03:19:00 10° WSW 03:21:40 45° S 03:24:19 10° ESE
[s.n.70144] 2.9 03:19:00 10° WSW 03:21:40 45° S 03:24:19 10° ESE
[s.n.70128] 2.9 03:19:00 10° WSW 03:21:40 45° S 03:24:19 10° ESE
[s.n.70143] 2.9 03:19:02 10° WSW 03:21:41 45° S 03:24:21 10° ESE
[s.n.70152] 2.9 03:19:02 10° WSW 03:21:42 45° S 03:24:21 10° ESE
[s.n.70114] 2.9 03:19:02 10° WSW 03:21:42 45° S 03:24:21 10° ESE
[s.n.70151] 2.9 03:19:02 10° WSW 03:21:42 45° S 03:24:21 10° ESE
[s.n.70084] 2.9 03:19:03 10° WSW 03:21:42 45° S 03:24:22 10° ESE
[s.n.70120] 2.9 03:19:03 10° WSW 03:21:43 45° S 03:24:22 10° ESE
[s.n.70119] 2.9 03:19:03 10° WSW 03:21:43 45° S 03:24:22 10° ESE
SL-16 R/B 3.0 03:17:55 10° NW 03:22:51 32° WSW 03:27:47 10° SSW
Cosmos 2266 Rocket 4.3 03:17:50 10° N 03:24:12 77° E 03:30:25 10° SSE
Cosmos 2322 Rocket 2.5 03:19:21 10° NW 03:24:43 45° WSW 03:30:02 10° S
Cosmos 614 Rocket 4.0 03:20:11 10° NNW 03:25:24 69° WSW 03:30:33 10° S
USA 238 DEB 4.0 03:19:06 10° NW 03:26:29 77° SW 03:34:17 10° SSE
USA 238 4.0 03:19:13 10° NW 03:26:35 77° SW 03:34:24 10° SSE
Tiangong -1.2 03:23:41 10° WSW 03:26:38 33° S 03:29:34 10° ESE
Cosmos 1833 4.3 03:21:39 10° SSW 03:27:25 85° WNW 03:33:15 10° NNE
CZ-2C R/B 2.7 03:24:37 10° S 03:29:44 57° W 03:34:59 10° NNW
Resurs 1-4 Rocket 4.1 03:26:54 10° NNW 03:29:45 15° NW 03:32:36 10° W
Cosmos 2360 Rocket 2.3 03:24:43 10° NNW 03:30:14 57° WSW 03:35:42 10° S
PAYLOAD A 4.2 03:25:42 10° NNE 03:30:38 76° ESE 03:35:44 10° S
